When you browse on this site, cookies collect data to enhance your experience and personalize the content and advertising you see.
Visit our Privacy Policy to learn more. By continuing to use the site, you agree to this use of cookies and data.
  • In Österreich
  • Länderverzeichnis
  • Für 7 Tage
  • Wassertemperatur
  • Wetterkarte
  • News
  • Widgets
  • user-avatar
    Anmelden

    Stündliche Wetter Tonche

    Heute, 7 April, Dienstag

    Zeit Temperatur Niederschläge Wind Luftdruck Luftfeuchtigkeit
    00:00 +8°C° 0 mm 3 m/S 754 mmHg 51%
    01:00 +7°C° 0 mm 3 m/S 753 mmHg 52%
    02:00 +7°C° 0 mm 3 m/S 753 mmHg 53%
    03:00 +7°C° 0 mm 3 m/S 753 mmHg 53%
    04:00 +5°C° 0 mm 3 m/S 753 mmHg 54%
    05:00 +5°C° 0 mm 3 m/S 752 mmHg 55%
    06:00 +4°C° 0 mm 3 m/S 752 mmHg 55%
    07:00 +8°C° 0 mm 3 m/S 752 mmHg 50%
    08:00 +10°C° 0 mm 3 m/S 752 mmHg 44%
    09:00 +12°C° 0 mm 3 m/S 752 mmHg 38%
    10:00 +14°C° 0 mm 3 m/S 752 mmHg 39%
    11:00 +16°C° 0 mm 2 m/S 752 mmHg 39%
    12:00 +18°C° 0 mm 2 m/S 752 mmHg 39%
    13:00 +18°C° 0 mm 3 m/S 751 mmHg 38%
    14:00 +18°C° 0 mm 3 m/S 751 mmHg 37%
    15:00 +19°C° 0 mm 3 m/S 750 mmHg 37%
    16:00 +17°C° 0 mm 4 m/S 750 mmHg 41%
    17:00 +15°C° 0 mm 4 m/S 750 mmHg 46%
    18:00 +14°C° 0 mm 4 m/S 750 mmHg 51%
    19:00 +13°C° 0 mm 4 m/S 750 mmHg 60%
    20:00 +11°C° 0 mm 3 m/S 751 mmHg 69%
    21:00 +9°C° 0 mm 3 m/S 751 mmHg 78%
    22:00 +9°C° 0 mm 3 m/S 751 mmHg 76%
    23:00 +8°C° 0 mm 2 m/S 751 mmHg 75%

    Morgen, 8 April, Mittwoch

    Zeit Temperatur Niederschläge Wind Luftdruck Luftfeuchtigkeit
    00:00 +7°C° 0 mm 2 m/S 751 mmHg 73%
    01:00 +7°C° 0 mm 3 m/S 751 mmHg 69%
    02:00 +5°C° 0 mm 5 m/S 752 mmHg 66%
    03:00 +3°C° 0 mm 6 m/S 752 mmHg 62%
    04:00 +3°C° 0 mm 6 m/S 752 mmHg 63%
    05:00 +2°C° 0 mm 6 m/S 752 mmHg 64%
    06:00 +2°C° 0 mm 5 m/S 752 mmHg 65%
    07:00 +4°C° 0 mm 6 m/S 753 mmHg 52%
    08:00 +5°C° 0 mm 6 m/S 753 mmHg 39%
    09:00 +8°C° 0 mm 6 m/S 753 mmHg 25%
    10:00 +9°C° 0 mm 6 m/S 753 mmHg 25%
    11:00 +10°C° 0 mm 7 m/S 753 mmHg 24%
    12:00 +11°C° 0 mm 7 m/S 754 mmHg 23%
    13:00 +11°C° 0 mm 6 m/S 753 mmHg 24%
    14:00 +11°C° 0 mm 6 m/S 753 mmHg 24%
    15:00 +12°C° 0 mm 5 m/S 753 mmHg 25%
    16:00 +12°C° 0 mm 4 m/S 753 mmHg 27%
    17:00 +11°C° 0 mm 3 m/S 753 mmHg 30%
    18:00 +10°C° 0 mm 2 m/S 754 mmHg 32%
    19:00 +9°C° 0 mm 2 m/S 754 mmHg 35%
    20:00 +8°C° 0 mm 3 m/S 755 mmHg 37%
    21:00 +5°C° 0 mm 4 m/S 755 mmHg 39%
    22:00 +5°C° 0 mm 4 m/S 755 mmHg 41%
    23:00 +5°C° 0 mm 5 m/S 755 mmHg 43%

    übermorgen, 9 April, Donnerstag

    Zeit Temperatur Niederschläge Wind Luftdruck Luftfeuchtigkeit
    00:00 +3°C° 0 mm 5 m/S 755 mmHg 45%
    01:00 +3°C° 0 mm 5 m/S 755 mmHg 47%
    02:00 +2°C° 0 mm 5 m/S 755 mmHg 48%
    03:00 +2°C° 0 mm 5 m/S 755 mmHg 50%
    04:00 +2°C° 0 mm 5 m/S 755 mmHg 52%
    05:00 +1°C° 0 mm 5 m/S 755 mmHg 54%
    06:00 +1°C° 0 mm 5 m/S 756 mmHg 55%
    07:00 +4°C° 0 mm 4 m/S 756 mmHg 49%
    08:00 +7°C° 0 mm 4 m/S 756 mmHg 43%
    09:00 +10°C° 0 mm 4 m/S 756 mmHg 37%
    10:00 +11°C° 0 mm 4 m/S 756 mmHg 35%
    11:00 +12°C° 0 mm 4 m/S 756 mmHg 34%
    12:00 +13°C° 0 mm 5 m/S 756 mmHg 32%
    13:00 +13°C° 0 mm 5 m/S 756 mmHg 34%
    14:00 +13°C° 0 mm 4 m/S 756 mmHg 36%
    15:00 +12°C° 0 mm 4 m/S 756 mmHg 37%
    16:00 +11°C° 0.1 mm 4 m/S 756 mmHg 48%
    17:00 +9°C° 0.1 mm 3 m/S 757 mmHg 58%
    18:00 +8°C° 0.1 mm 2 m/S 757 mmHg 69%
    19:00 +7°C° 0.5 mm 2 m/S 757 mmHg 76%
    20:00 +7°C° 0.5 mm 2 m/S 758 mmHg 83%
    21:00 +7°C° 0.5 mm 1 m/S 759 mmHg 90%
    22:00 +7°C° 0.2 mm 1 m/S 759 mmHg 90%
    23:00 +7°C° 0.2 mm 1 m/S 760 mmHg 91%

    10 April, Freitag

    Zeit Temperatur Niederschläge Wind Luftdruck Luftfeuchtigkeit
    00:00 +7°C° 0.2 mm 1 m/S 760 mmHg 91%
    01:00 +6°C° 0 mm 1 m/S 760 mmHg 91%
    02:00 +6°C° 0 mm 1 m/S 760 mmHg 91%
    03:00 +6°C° 0 mm 1 m/S 760 mmHg 91%
    04:00 +5°C° 0 mm 1 m/S 760 mmHg 90%
    05:00 +5°C° 0 mm 1 m/S 760 mmHg 89%
    06:00 +5°C° 0 mm 1 m/S 761 mmHg 89%
    07:00 +7°C° 0 mm 1 m/S 761 mmHg 76%
    08:00 +10°C° 0 mm 1 m/S 761 mmHg 64%
    09:00 +11°C° 0 mm 0 m/S 761 mmHg 52%
    10:00 +13°C° 0 mm 1 m/S 761 mmHg 48%
    11:00 +14°C° 0 mm 2 m/S 760 mmHg 45%
    12:00 +15°C° 0 mm 2 m/S 760 mmHg 42%
    13:00 +14°C° 0 mm 3 m/S 759 mmHg 46%
    14:00 +13°C° 0 mm 3 m/S 759 mmHg 49%
    15:00 +13°C° 0 mm 3 m/S 758 mmHg 53%
    16:00 +12°C° 0 mm 4 m/S 758 mmHg 56%
    17:00 +11°C° 0 mm 4 m/S 758 mmHg 59%
    18:00 +11°C° 0 mm 4 m/S 758 mmHg 62%
    19:00 +10°C° 0 mm 4 m/S 758 mmHg 64%
    20:00 +8°C° 0 mm 4 m/S 759 mmHg 66%
    21:00 +7°C° 0 mm 4 m/S 759 mmHg 68%
    22:00 +7°C° 0 mm 4 m/S 759 mmHg 67%
    23:00 +7°C° 0 mm 4 m/S 758 mmHg 67%

    11 April, Samstag

    Zeit Temperatur Niederschläge Wind Luftdruck Luftfeuchtigkeit
    00:00 +7°C° 0 mm 3 m/S 758 mmHg 67%
    01:00 +6°C° 0 mm 4 m/S 758 mmHg 67%
    02:00 +6°C° 0 mm 4 m/S 757 mmHg 67%
    03:00 +6°C° 0 mm 4 m/S 757 mmHg 68%
    04:00 +5°C° 0 mm 4 m/S 757 mmHg 69%
    05:00 +5°C° 0 mm 4 m/S 757 mmHg 70%
    06:00 +4°C° 0 mm 3 m/S 757 mmHg 72%
    07:00 +7°C° 0 mm 3 m/S 756 mmHg 61%
    08:00 +10°C° 0 mm 2 m/S 756 mmHg 51%
    09:00 +13°C° 0 mm 2 m/S 756 mmHg 41%
    10:00 +14°C° 0 mm 2 m/S 756 mmHg 38%
    11:00 +15°C° 0 mm 2 m/S 755 mmHg 35%
    12:00 +16°C° 0 mm 2 m/S 755 mmHg 32%
    13:00 +16°C° 0 mm 2 m/S 754 mmHg 33%
    14:00 +16°C° 0 mm 2 m/S 754 mmHg 34%
    15:00 +15°C° 0 mm 2 m/S 754 mmHg 35%
    16:00 +14°C° 0 mm 2 m/S 753 mmHg 40%
    17:00 +13°C° 0 mm 2 m/S 753 mmHg 44%
    18:00 +12°C° 0 mm 2 m/S 753 mmHg 48%
    19:00 +10°C° 0 mm 2 m/S 753 mmHg 53%
    20:00 +9°C° 0 mm 2 m/S 754 mmHg 59%
    21:00 +8°C° 0 mm 2 m/S 754 mmHg 64%
    22:00 +8°C° 0 mm 2 m/S 754 mmHg 66%
    23:00 +8°C° 0 mm 1 m/S 755 mmHg 68%

    12 April, Sonntag

    Zeit Temperatur Niederschläge Wind Luftdruck Luftfeuchtigkeit
    00:00 +8°C° 0 mm 1 m/S 755 mmHg 71%
    01:00 +8°C° 0.1 mm 1 m/S 754 mmHg 74%
    02:00 +6°C° 0.1 mm 2 m/S 754 mmHg 77%
    03:00 +6°C° 0.1 mm 2 m/S 754 mmHg 80%
    04:00 +6°C° 0.6 mm 2 m/S 754 mmHg 83%
    05:00 +7°C° 0.6 mm 3 m/S 754 mmHg 85%
    06:00 +7°C° 0.6 mm 3 m/S 754 mmHg 87%
    07:00 +6°C° 0.8 mm 4 m/S 754 mmHg 89%
    08:00 +6°C° 0.8 mm 4 m/S 755 mmHg 90%
    09:00 +6°C° 0.8 mm 5 m/S 755 mmHg 91%
    10:00 +6°C° 1.5 mm 5 m/S 755 mmHg 92%
    11:00 +6°C° 1.5 mm 5 m/S 755 mmHg 93%
    12:00 +4°C° 1.5 mm 6 m/S 754 mmHg 94%
    13:00 +4°C° 1 mm 6 m/S 755 mmHg 93%
    14:00 +4°C° 1 mm 6 m/S 755 mmHg 92%
    15:00 +4°C° 1 mm 6 m/S 755 mmHg 91%
    16:00 +4°C° 0.2 mm 6 m/S 755 mmHg 90%
    17:00 +4°C° 0.2 mm 6 m/S 755 mmHg 89%
    18:00 +5°C° 0.2 mm 5 m/S 754 mmHg 88%
    19:00 +5°C° 0.1 mm 5 m/S 755 mmHg 88%
    20:00 +3°C° 0.1 mm 5 m/S 755 mmHg 88%
    21:00 +3°C° 0.1 mm 5 m/S 755 mmHg 89%
    22:00 +4°C° 0 mm 4 m/S 755 mmHg 88%
    23:00 +3°C° 0 mm 4 m/S 755 mmHg 87%
    Mehr zeigen